AUA183 EDDM-LOWW

Flight info

Callsign AUA183
Flight time 1h 0m
Altitude 27000
Route KIRDI3S KIRDI DCT BUWOQ DCT MASUR MASUR3W
Aircraft A20N/M-SDE2E3FGHIRWXY/LB1

Departure

Time 2026-05-06 19:29
Airport Munich Airport (EDDM)

Arrival

Time 2026-05-06 20:29
Airport Vienna International Airport (LOWW)
Time Latitude Longitude Altitude Speed Heading
2026-05-06 18:57 48.35587 11.79995 1470 ft 0 kts 264°
2026-05-06 19:18 48.35587 11.80007 1470 ft 2 kts 264°
2026-05-06 19:18 48.35589 11.80029 1470 ft 2 kts 264°
2026-05-06 19:18 48.35590 11.80051 1470 ft 2 kts 264°
2026-05-06 19:19 48.35592 11.80073 1470 ft 2 kts 272°
2026-05-06 19:19 48.35587 11.80095 1469 ft 2 kts 300°
2026-05-06 19:19 48.35576 11.80109 1469 ft 1 kts 345°
2026-05-06 19:19 48.35568 11.80111 1470 ft 0 kts 347°
2026-05-06 19:20 48.35563 11.80113 1470 ft 0 kts 348°
2026-05-06 19:23 48.35582 11.80109 1469 ft 5 kts 353°
2026-05-06 19:23 48.35661 11.80093 1469 ft 15 kts 351°
2026-05-06 19:23 48.35766 11.80065 1468 ft 14 kts 347°
2026-05-06 19:23 48.35806 11.79947 1468 ft 14 kts 264°
2026-05-06 19:24 48.35794 11.79791 1469 ft 16 kts 263°
2026-05-06 19:24 48.35781 11.79625 1470 ft 15 kts 264°
2026-05-06 19:24 48.35767 11.79466 1471 ft 14 kts 253°
2026-05-06 19:24 48.35692 11.79411 1472 ft 14 kts 171°
2026-05-06 19:25 48.35584 11.79431 1473 ft 16 kts 174°
2026-05-06 19:25 48.35474 11.79451 1473 ft 15 kts 173°
2026-05-06 19:25 48.35365 11.79470 1474 ft 15 kts 173°
2026-05-06 19:25 48.35255 11.79488 1474 ft 15 kts 174°
2026-05-06 19:26 48.35145 11.79508 1475 ft 16 kts 173°
2026-05-06 19:26 48.35045 11.79525 1475 ft 12 kts 173°
2026-05-06 19:26 48.34985 11.79603 1475 ft 10 kts 106°
2026-05-06 19:26 48.34938 11.79678 1474 ft 9 kts 165°
2026-05-06 19:27 48.34904 11.79685 1474 ft 1 kts 172°
2026-05-06 19:27 48.34903 11.79686 1474 ft 0 kts 172°
2026-05-06 19:27 48.34867 11.79692 1474 ft 14 kts 174°
2026-05-06 19:27 48.34755 11.79707 1475 ft 16 kts 179°
2026-05-06 19:28 48.34664 11.79625 1475 ft 15 kts 233°
2026-05-06 19:28 48.34587 11.79473 1476 ft 21 kts 233°
2026-05-06 19:28 48.34497 11.79289 1477 ft 22 kts 234°
2026-05-06 19:28 48.34400 11.79109 1478 ft 20 kts 232°
2026-05-06 19:29 48.34354 11.78845 1479 ft 49 kts 263°
2026-05-06 19:29 48.34286 11.77954 1482 ft 120 kts 263°
2026-05-06 19:29 48.34166 11.76387 1517 ft 174 kts 263°
2026-05-06 19:29 48.34021 11.74620 2267 ft 170 kts 264°
2026-05-06 19:30 48.33898 11.72922 3201 ft 163 kts 262°
2026-05-06 19:30 48.33361 11.71456 3943 ft 173 kts 221°
2026-05-06 19:30 48.32192 11.70851 4525 ft 192 kts 192°
2026-05-06 19:30 48.30782 11.71022 5029 ft 211 kts 180°
2026-05-06 19:31 48.29297 11.71229 5642 ft 220 kts 182°
2026-05-06 19:31 48.27774 11.71450 6277 ft 232 kts 170°
2026-05-06 19:31 48.25359 11.75067 7348 ft 277 kts 107°
2026-05-06 19:32 48.25145 11.77978 8056 ft 288 kts 92°
2026-05-06 19:32 48.25163 11.81001 8779 ft 297 kts 91°
2026-05-06 19:32 48.25206 11.84090 9588 ft 301 kts 93°
2026-05-06 19:32 48.25187 11.87228 10447 ft 303 kts 95°
2026-05-06 19:33 48.25093 11.90394 10998 ft 315 kts 97°
2026-05-06 19:33 48.24951 11.93748 11390 ft 333 kts 97°
2026-05-06 19:33 48.24791 11.97321 11753 ft 351 kts 96°
2026-05-06 19:33 48.24623 12.01063 12260 ft 363 kts 97°
2026-05-06 19:34 48.24456 12.04841 12965 ft 368 kts 96°
2026-05-06 19:34 48.24286 12.08660 13665 ft 373 kts 96°
2026-05-06 19:34 48.24112 12.12555 14340 ft 378 kts 97°
2026-05-06 19:34 48.23935 12.16470 15006 ft 382 kts 97°
2026-05-06 19:35 48.23755 12.20443 15674 ft 386 kts 97°
2026-05-06 19:35 48.23567 12.24512 16324 ft 390 kts 97°
2026-05-06 19:35 48.23380 12.28543 16953 ft 394 kts 97°
2026-05-06 19:35 48.23186 12.32665 17570 ft 398 kts 97°
2026-05-06 19:36 48.22992 12.36781 18167 ft 402 kts 97°
2026-05-06 19:36 48.22794 12.40952 18751 ft 406 kts 97°
2026-05-06 19:36 48.22593 12.45157 19312 ft 410 kts 97°
2026-05-06 19:36 48.22386 12.49463 19874 ft 414 kts 97°
2026-05-06 19:37 48.22178 12.53755 20437 ft 418 kts 97°
2026-05-06 19:37 48.21964 12.58116 20993 ft 422 kts 97°
2026-05-06 19:37 48.21749 12.62485 21534 ft 426 kts 97°
2026-05-06 19:37 48.21529 12.66927 22088 ft 429 kts 98°
2026-05-06 19:38 48.21304 12.71387 22586 ft 433 kts 98°
2026-05-06 19:38 48.21077 12.75872 22851 ft 436 kts 98°
2026-05-06 19:38 48.20861 12.80459 23374 ft 440 kts 96°
2026-05-06 19:38 48.20795 12.84979 24152 ft 438 kts 93°
2026-05-06 19:39 48.20850 12.89523 24943 ft 434 kts 92°
2026-05-06 19:39 48.20920 12.93968 25564 ft 434 kts 92°
2026-05-06 19:39 48.20992 12.98523 26049 ft 438 kts 92°
2026-05-06 19:39 48.21061 13.03115 26502 ft 441 kts 93°
2026-05-06 19:40 48.21122 13.07714 26770 ft 444 kts 93°
2026-05-06 19:40 48.21014 13.12300 26755 ft 441 kts 102°
2026-05-06 19:40 48.20468 13.16802 26764 ft 440 kts 107°
2026-05-06 19:40 48.19808 13.21236 26764 ft 441 kts 107°
2026-05-06 19:41 48.19141 13.25723 26768 ft 441 kts 107°
2026-05-06 19:41 48.18500 13.30192 26762 ft 442 kts 107°
2026-05-06 19:41 48.17877 13.34684 26760 ft 441 kts 106°
2026-05-06 19:41 48.17267 13.39195 26754 ft 441 kts 106°
2026-05-06 19:42 48.16665 13.43695 26747 ft 442 kts 106°
2026-05-06 19:42 48.16067 13.48189 26741 ft 442 kts 106°
2026-05-06 19:42 48.15473 13.52669 26742 ft 442 kts 106°
2026-05-06 19:42 48.14872 13.57190 26739 ft 441 kts 106°
2026-05-06 19:43 48.14278 13.61648 26735 ft 442 kts 106°
2026-05-06 19:43 48.13675 13.66167 26734 ft 442 kts 107°
2026-05-06 19:43 48.13066 13.70711 26556 ft 442 kts 107°
2026-05-06 19:43 48.12471 13.75147 26293 ft 439 kts 107°
2026-05-06 19:44 48.11870 13.79615 26026 ft 435 kts 107°
2026-05-06 19:44 48.11272 13.84045 25763 ft 432 kts 107°
2026-05-06 19:44 48.10677 13.88441 25499 ft 430 kts 107°
2026-05-06 19:44 48.10084 13.92793 25237 ft 429 kts 107°
2026-05-06 19:45 48.09490 13.97150 24976 ft 429 kts 107°
2026-05-06 19:45 48.08892 14.01504 24705 ft 429 kts 107°
2026-05-06 19:45 48.08292 14.05879 24430 ft 429 kts 107°
2026-05-06 19:45 48.07698 14.10197 24163 ft 428 kts 106°
2026-05-06 19:46 48.07095 14.14557 23901 ft 428 kts 106°
2026-05-06 19:46 48.06498 14.18869 23638 ft 428 kts 106°
2026-05-06 19:46 48.05895 14.23220 23370 ft 428 kts 106°
2026-05-06 19:46 48.05289 14.27568 23101 ft 429 kts 106°
2026-05-06 19:47 48.04677 14.31954 22825 ft 429 kts 106°
2026-05-06 19:47 48.04067 14.36309 22575 ft 430 kts 106°
2026-05-06 19:47 48.03459 14.40632 22305 ft 429 kts 106°
2026-05-06 19:47 48.02846 14.44989 22041 ft 427 kts 106°
2026-05-06 19:48 48.02240 14.49296 21772 ft 423 kts 106°
2026-05-06 19:48 48.01637 14.53570 21405 ft 415 kts 106°
2026-05-06 19:48 48.01051 14.57711 21048 ft 408 kts 106°
2026-05-06 19:48 48.00466 14.61831 20694 ft 400 kts 106°
2026-05-06 19:49 47.99912 14.65715 20365 ft 393 kts 107°
2026-05-06 19:49 47.99338 14.69717 20014 ft 386 kts 107°
2026-05-06 19:49 47.98786 14.73561 19762 ft 381 kts 107°
2026-05-06 19:49 47.98230 14.77422 19499 ft 380 kts 107°
2026-05-06 19:50 47.97672 14.81267 19241 ft 377 kts 107°
2026-05-06 19:50 47.97119 14.85090 18983 ft 377 kts 107°
2026-05-06 19:50 47.96569 14.88872 18744 ft 375 kts 107°
2026-05-06 19:50 47.96021 14.92634 18533 ft 373 kts 107°
2026-05-06 19:51 47.95470 14.96417 18318 ft 372 kts 107°
2026-05-06 19:51 47.94923 15.00169 18108 ft 372 kts 107°
2026-05-06 19:51 47.94371 15.03940 17933 ft 370 kts 107°
2026-05-06 19:51 47.93819 15.07700 17758 ft 369 kts 107°
2026-05-06 19:52 47.93270 15.11434 17578 ft 368 kts 107°
2026-05-06 19:52 47.92724 15.15127 17412 ft 368 kts 107°
2026-05-06 19:52 47.92178 15.18822 17276 ft 367 kts 107°
2026-05-06 19:52 47.91630 15.22523 17133 ft 366 kts 107°
2026-05-06 19:53 47.91081 15.26223 17003 ft 365 kts 107°
2026-05-06 19:53 47.90528 15.29929 16798 ft 363 kts 107°
2026-05-06 19:53 47.90036 15.33563 16772 ft 365 kts 104°
2026-05-06 19:53 47.89698 15.37225 16547 ft 367 kts 99°
2026-05-06 19:54 47.89542 15.41008 16618 ft 364 kts 95°
2026-05-06 19:54 47.89449 15.44843 16314 ft 372 kts 97°
2026-05-06 19:54 47.89193 15.48640 15768 ft 374 kts 102°
2026-05-06 19:54 47.88710 15.52485 14944 ft 379 kts 107°
2026-05-06 19:55 47.88089 15.56273 14319 ft 380 kts 108°
2026-05-06 19:55 47.87450 15.60044 13836 ft 377 kts 107°
2026-05-06 19:55 47.86809 15.63822 13357 ft 374 kts 107°
2026-05-06 19:55 47.86169 15.67588 12848 ft 372 kts 108°
2026-05-06 19:56 47.85543 15.71290 12350 ft 370 kts 108°
2026-05-06 19:56 47.84921 15.74954 11904 ft 366 kts 107°
2026-05-06 19:56 47.84298 15.78629 11742 ft 366 kts 107°
2026-05-06 19:56 47.83669 15.82341 11750 ft 368 kts 107°
2026-05-06 19:57 47.83045 15.86013 11749 ft 367 kts 107°
2026-05-06 19:57 47.82419 15.89696 11740 ft 367 kts 108°
2026-05-06 19:57 47.81802 15.93329 11744 ft 355 kts 107°
2026-05-06 19:57 47.81210 15.96817 11736 ft 338 kts 108°
2026-05-06 19:58 47.80648 16.00110 11740 ft 321 kts 108°
2026-05-06 19:58 47.80108 16.03267 11747 ft 313 kts 108°
2026-05-06 19:58 47.79563 16.06426 11746 ft 312 kts 108°
2026-05-06 19:58 47.79026 16.09544 11528 ft 308 kts 108°
2026-05-06 19:59 47.78499 16.12605 11104 ft 310 kts 108°
2026-05-06 19:59 47.77974 16.15717 10688 ft 310 kts 108°
2026-05-06 19:59 47.77452 16.18804 10303 ft 309 kts 108°
2026-05-06 19:59 47.76952 16.21930 9996 ft 308 kts 101°
2026-05-06 20:00 47.77143 16.25086 9941 ft 316 kts 69°
2026-05-06 20:00 47.78198 16.27924 10030 ft 319 kts 59°
2026-05-06 20:00 47.79395 16.30744 10033 ft 319 kts 58°
2026-05-06 20:00 47.80585 16.33502 10040 ft 319 kts 58°
2026-05-06 20:01 47.81752 16.36282 10049 ft 319 kts 59°
2026-05-06 20:01 47.82897 16.39150 10030 ft 318 kts 60°
2026-05-06 20:01 47.83987 16.41987 9985 ft 318 kts 61°
2026-05-06 20:01 47.85088 16.44859 9962 ft 318 kts 61°
2026-05-06 20:02 47.86172 16.47707 9958 ft 318 kts 61°
2026-05-06 20:02 47.87264 16.50578 9976 ft 317 kts 61°
2026-05-06 20:02 47.88356 16.53422 9989 ft 312 kts 60°
2026-05-06 20:02 47.89424 16.56164 9955 ft 298 kts 60°
2026-05-06 20:03 47.90434 16.58753 9932 ft 284 kts 61°
2026-05-06 20:03 47.91418 16.61305 9946 ft 282 kts 61°
2026-05-06 20:03 47.92392 16.63826 9986 ft 283 kts 61°
2026-05-06 20:03 47.93378 16.66398 10026 ft 283 kts 62°
2026-05-06 20:04 47.94363 16.68946 10032 ft 284 kts 62°
2026-05-06 20:04 47.95351 16.71521 10017 ft 284 kts 62°
2026-05-06 20:04 47.96321 16.74047 9991 ft 284 kts 62°
2026-05-06 20:04 47.97311 16.76610 9992 ft 283 kts 62°
2026-05-06 20:05 47.98301 16.79157 9990 ft 283 kts 62°
2026-05-06 20:05 47.99445 16.81524 9916 ft 284 kts 39°
2026-05-06 20:05 48.01214 16.82773 9832 ft 279 kts
2026-05-06 20:05 48.03078 16.82481 9847 ft 262 kts 330°
2026-05-06 20:06 48.04607 16.81088 9956 ft 256 kts 317°
2026-05-06 20:06 48.06045 16.79464 9965 ft 254 kts 316°
2026-05-06 20:06 48.07487 16.77956 9997 ft 257 kts 324°
2026-05-06 20:06 48.09070 16.76647 10035 ft 258 kts 327°
2026-05-06 20:07 48.10675 16.75440 10050 ft 260 kts 328°
2026-05-06 20:07 48.12312 16.74214 9872 ft 257 kts 328°
2026-05-06 20:07 48.13923 16.73012 9636 ft 253 kts 327°
2026-05-06 20:07 48.15477 16.71805 9315 ft 252 kts 327°
2026-05-06 20:08 48.17033 16.70566 8976 ft 252 kts 327°
2026-05-06 20:08 48.18615 16.69306 8639 ft 253 kts 327°
2026-05-06 20:08 48.20091 16.68158 8335 ft 253 kts 328°
2026-05-06 20:08 48.21464 16.67099 8056 ft 253 kts 328°
2026-05-06 20:09 48.23032 16.65896 7732 ft 252 kts 328°
2026-05-06 20:09 48.24684 16.64887 7417 ft 257 kts 342°
2026-05-06 20:09 48.26442 16.64321 7107 ft 257 kts 344°
2026-05-06 20:09 48.28189 16.63700 6792 ft 256 kts 342°
2026-05-06 20:10 48.29917 16.63069 6496 ft 255 kts 343°
2026-05-06 20:10 48.31644 16.62467 6225 ft 254 kts 347°
2026-05-06 20:10 48.33305 16.62208 6065 ft 249 kts 356°
2026-05-06 20:10 48.35035 16.62435 5958 ft 257 kts 14°
2026-05-06 20:11 48.36718 16.63460 6018 ft 261 kts 25°
2026-05-06 20:11 48.38383 16.64651 6104 ft 263 kts 26°
2026-05-06 20:11 48.40031 16.65883 6069 ft 262 kts 27°
2026-05-06 20:11 48.41670 16.67115 6020 ft 262 kts 26°
2026-05-06 20:12 48.43359 16.68152 5972 ft 261 kts 10°
2026-05-06 20:12 48.45159 16.68501 6015 ft 261 kts
2026-05-06 20:12 48.46967 16.68845 6091 ft 260 kts
2026-05-06 20:12 48.48721 16.69197 6064 ft 247 kts
2026-05-06 20:13 48.50412 16.69540 5978 ft 244 kts
2026-05-06 20:13 48.52114 16.69862 5929 ft 244 kts
2026-05-06 20:13 48.53802 16.70172 5922 ft 244 kts
2026-05-06 20:13 48.55477 16.70471 5951 ft 244 kts
2026-05-06 20:14 48.57169 16.70760 5976 ft 244 kts
2026-05-06 20:14 48.58869 16.71039 5995 ft 244 kts
2026-05-06 20:14 48.60553 16.71314 5973 ft 244 kts
2026-05-06 20:14 48.62225 16.71014 5904 ft 238 kts 330°
2026-05-06 20:15 48.63557 16.69648 5941 ft 233 kts 316°
2026-05-06 20:15 48.64829 16.68090 5938 ft 233 kts 316°
2026-05-06 20:15 48.66050 16.66538 5969 ft 217 kts 315°
2026-05-06 20:15 48.67177 16.65057 6095 ft 213 kts 314°
2026-05-06 20:16 48.68123 16.63381 6060 ft 204 kts 290°
2026-05-06 20:16 48.68363 16.61338 6005 ft 190 kts 255°
2026-05-06 20:16 48.67799 16.59628 5961 ft 179 kts 221°
2026-05-06 20:16 48.66737 16.58676 6012 ft 177 kts 197°
2026-05-06 20:17 48.65537 16.58229 5956 ft 178 kts 193°
2026-05-06 20:17 48.64323 16.57842 5815 ft 176 kts 193°
2026-05-06 20:17 48.63119 16.57382 5658 ft 176 kts 194°
2026-05-06 20:17 48.61935 16.56936 5514 ft 175 kts 194°
2026-05-06 20:18 48.60754 16.56481 5287 ft 176 kts 194°
2026-05-06 20:18 48.59498 16.55968 5142 ft 192 kts 195°
2026-05-06 20:18 48.58205 16.55392 5014 ft 194 kts 197°
2026-05-06 20:18 48.56910 16.54800 5007 ft 193 kts 197°
2026-05-06 20:19 48.55628 16.54212 5047 ft 193 kts 197°
2026-05-06 20:19 48.54418 16.53653 5071 ft 193 kts 197°
2026-05-06 20:19 48.53146 16.53119 5087 ft 194 kts 195°
2026-05-06 20:19 48.51829 16.52630 5093 ft 195 kts 194°
2026-05-06 20:20 48.50515 16.52093 5026 ft 194 kts 197°
2026-05-06 20:20 48.49224 16.51512 4976 ft 193 kts 197°
2026-05-06 20:20 48.47944 16.50912 4941 ft 195 kts 197°
2026-05-06 20:20 48.46648 16.50297 4923 ft 194 kts 197°
2026-05-06 20:21 48.45359 16.49680 4903 ft 192 kts 197°
2026-05-06 20:21 48.44098 16.49128 4901 ft 188 kts 197°
2026-05-06 20:21 48.43065 16.48680 4889 ft 188 kts 197°
2026-05-06 20:21 48.41739 16.48118 4905 ft 192 kts 196°
2026-05-06 20:22 48.40435 16.47586 4942 ft 194 kts 196°
2026-05-06 20:22 48.39179 16.47125 4963 ft 183 kts 191°
2026-05-06 20:22 48.37997 16.47074 4883 ft 172 kts 177°
2026-05-06 20:22 48.36835 16.47448 4818 ft 169 kts 168°
2026-05-06 20:23 48.35703 16.47919 4853 ft 170 kts 170°
2026-05-06 20:23 48.34547 16.48368 4934 ft 172 kts 170°
2026-05-06 20:23 48.33408 16.48804 4943 ft 170 kts 170°
2026-05-06 20:23 48.32251 16.49271 4817 ft 176 kts 169°
2026-05-06 20:24 48.31023 16.49733 4565 ft 181 kts 170°
2026-05-06 20:24 48.29944 16.50198 4323 ft 177 kts 167°
2026-05-06 20:24 48.28775 16.50723 4036 ft 173 kts 168°
2026-05-06 20:24 48.27616 16.51198 3756 ft 173 kts 169°
2026-05-06 20:25 48.26453 16.51650 3490 ft 171 kts 168°
2026-05-06 20:25 48.25325 16.52144 3237 ft 168 kts 167°
2026-05-06 20:25 48.24220 16.52659 2975 ft 165 kts 167°
2026-05-06 20:25 48.23127 16.53119 2709 ft 161 kts 168°
2026-05-06 20:26 48.22065 16.53538 2477 ft 155 kts 169°
2026-05-06 20:26 48.21103 16.53945 2339 ft 134 kts 168°
2026-05-06 20:26 48.20224 16.54302 2114 ft 127 kts 168°
2026-05-06 20:26 48.19390 16.54658 1907 ft 120 kts 166°
2026-05-06 20:27 48.18581 16.55036 1782 ft 124 kts 167°
2026-05-06 20:27 48.17746 16.55364 1694 ft 121 kts 169°
2026-05-06 20:27 48.16925 16.55696 1595 ft 125 kts 166°
2026-05-06 20:27 48.16096 16.56052 1479 ft 124 kts 167°
2026-05-06 20:28 48.15278 16.56415 1272 ft 123 kts 167°
2026-05-06 20:28 48.14450 16.56769 1146 ft 123 kts 167°
2026-05-06 20:28 48.13620 16.57113 970 ft 123 kts 166°
2026-05-06 20:28 48.12801 16.57471 798 ft 123 kts 166°
2026-05-06 20:29 48.11980 16.57816 646 ft 124 kts 165°
2026-05-06 20:29 48.11220 16.58138 608 ft 91 kts 165°
2026-05-06 20:29 48.10744 16.58336 608 ft 60 kts 165°
2026-05-06 20:29 48.10403 16.58456 608 ft 41 kts 178°
2026-05-06 20:30 48.10183 16.58416 608 ft 19 kts 194°
2026-05-06 20:30 48.10113 16.58193 608 ft 13 kts 324°
2026-05-06 20:30 48.10207 16.58147 608 ft 13 kts 344°
2026-05-06 20:31 48.10289 16.58112 608 ft 9 kts 343°
2026-05-06 20:31 48.10319 16.58099 608 ft 0 kts 345°
2026-05-06 20:33 48.10359 16.58082 608 ft 13 kts 344°
2026-05-06 20:33 48.10457 16.58042 608 ft 15 kts 345°
2026-05-06 20:33 48.10560 16.57999 608 ft 15 kts 345°
2026-05-06 20:34 48.10666 16.57954 608 ft 15 kts 344°
2026-05-06 20:34 48.10770 16.57909 608 ft 17 kts 345°
2026-05-06 20:34 48.10905 16.57852 608 ft 20 kts 344°
2026-05-06 20:34 48.11029 16.57777 608 ft 18 kts 320°
2026-05-06 20:35 48.11097 16.57619 608 ft 17 kts 296°
2026-05-06 20:35 48.11148 16.57459 607 ft 16 kts 296°
2026-05-06 20:35 48.11197 16.57311 607 ft 15 kts 297°
2026-05-06 20:35 48.11244 16.57167 607 ft 14 kts 296°
2026-05-06 20:36 48.11286 16.57033 607 ft 14 kts 296°
2026-05-06 20:36 48.11332 16.56895 607 ft 14 kts 296°
2026-05-06 20:36 48.11406 16.56827 607 ft 13 kts 20°
2026-05-06 20:36 48.11490 16.56888 607 ft 13 kts 27°
2026-05-06 20:37 48.11576 16.56898 607 ft 12 kts 323°
2026-05-06 20:37 48.11622 16.56784 607 ft 12 kts 296°
2026-05-06 20:37 48.11660 16.56668 607 ft 8 kts 296°
2026-05-06 20:37 48.11696 16.56644 607 ft 6 kts 21°
2026-05-06 20:38 48.11730 16.56669 607 ft 2 kts 27°
2026-05-06 20:38 48.11739 16.56676 607 ft 0 kts 27°